Location: D�pe
(52.6057°N, 8.1808°E)
Time: 14:33:29
(UTC+00:00)

Cosmos 2263 Rocket - Pass Details

Date: 29 October 2020
Orbit: 822 x 850 km, 71.0° (Epoch: 28 November)

Event Time Altitude Azimuth Distance (km) Brightness Sun altitude
Rises 16:51:54 0° 327° (NNW) 3,419 5.6 -8.0°
Reaches altitude 10° 16:54:50 10° 341° (NNW) 2,484 4.7 -8.5°
Maximum altitude 16:59:26 24° 35° (NE) 1,685 3.4 -9.2°
Enters shadow 17:03:28 12° 85° (E) 2,324 3.8 -9.8°
